Weather History for Lake Charles Regional, LA

Change the Weather History Date:

Monday, February 20, 2012

  Actual Average Record
Temperature  
Mean Temperature 54 °F 56 °F  
Max Temperature 62 °F 66 °F 88 °F (1913)
Min Temperature 46 °F 47 °F 27 °F (1910)
Degree Days  
Heating Degree Days 11 9  
Month to date heating degree days 150 223  
Since 1 July heating degree days 894 1214  
Cooling Degree Days 0 0  
Month to date cooling degree days 17 0  
Year to date cooling degree days 58 10  
Growing Degree Days 4 (Base 50)    
Moisture  
Dew Point 48 °F    
Average Humidity 75    
Maximum Humidity 86    
Minimum Humidity 64    
Precipitation  
Precipitation 0.00 in 0.12 in 2.15 in (1943)
Month to date precipitation 8.01 2.55  
Year to date precipitation 16.79 7.78  
Snow  
Snow 0.00 in 0.00 in 0.00 in ()
Month to date snowfall 0.0 0.1  
Since 1 July snowfall 0.0 0.1  
Snow Depth 0.00 in    
Sea Level Pressure  
Sea Level Pressure 30.15 in    
Wind  
Wind Speed 7 mph (ESE)    
Max Wind Speed 17 mph    
Max Gust Speed 21 mph    
Visibility 10 miles    
Events      
T = Trace of Precipitation, MM = Missing Value Source: NWS Daily Summary

Daily Weather History Graph

Daily Weather History Graph

Search for Another Location

Airport:

Trip Planner

Search our weather history database for the weather conditions in past years. The results will help you decide how hot, cold, wet, or windy it might be!

Date:

Astronomy

Feb. 20, 2012 Rise Set
Actual Time 6:48 AM CST 6:05 PM CST
Civil Twilight 6:24 AM CST 6:29 PM CST
Nautical Twilight 5:56 AM CST 6:57 PM CST
Astronomical Twilight 5:28 AM CST 7:25 PM CST
Moon 5:43 AM CST (2/20) 5:10 PM CST (2/20)
Length of Visible Light 12h 05m
Length of Day
11h 16m
Waning Crescent, 1% of the Moon is Illuminated
Feb 20
Waning Crescent
Feb 21
New
Feb 29
First Quarter
Mar 8
Full
Mar 14
Last Quarter

Hourly Weather History & Observations

Time (CST) Temp. Windchill Dew Point Humidity Pressure Visibility Wind Dir Wind Speed Gust Speed Precip Events Conditions
12:53 AM 48.0 °F - 43.0 °F 83% 30.16 in 10.0 mi Calm Calm - N/A   Clear
1:53 AM 48.0 °F - 43.0 °F 83% 30.16 in 10.0 mi Calm Calm - N/A   Clear
2:53 AM 46.0 °F 44.8 °F 42.1 °F 86% 30.15 in 10.0 mi East 3.5 mph - N/A   Clear
3:53 AM 46.9 °F - 42.1 °F 83% 30.15 in 10.0 mi NE 3.5 mph - N/A   Clear
4:53 AM 48.0 °F - 43.0 °F 83% 30.13 in 10.0 mi East 6.9 mph - N/A   Clear
5:53 AM 48.0 °F - 43.0 °F 83% 30.14 in 10.0 mi East 3.5 mph - N/A   Clear
6:53 AM 46.9 °F - 42.1 °F 83% 30.14 in 10.0 mi East 4.6 mph - N/A   Clear
7:53 AM 50.0 °F - 45.0 °F 83% 30.17 in 10.0 mi Calm Calm - N/A   Clear
8:15 AM 51.8 °F - 44.6 °F 76% 30.15 in 10.0 mi East 4.6 mph - N/A   Mostly Cloudy
8:53 AM 54.0 °F - 46.9 °F 77% 30.18 in 10.0 mi ESE 10.4 mph - N/A   Overcast
9:31 AM 55.4 °F - 46.4 °F 72% 30.17 in 10.0 mi East 11.5 mph - N/A   Scattered Clouds
9:53 AM 57.0 °F - 48.0 °F 72% 30.19 in 10.0 mi ESE 13.8 mph - N/A   Clear
10:53 AM 60.1 °F - 48.9 °F 67% 30.21 in 10.0 mi ESE 10.4 mph - N/A   Mostly Cloudy
11:02 AM 60.8 °F - 50.0 °F 68% 30.18 in 10.0 mi ESE 12.7 mph - N/A   Mostly Cloudy
11:12 AM 60.8 °F - 48.2 °F 63% 30.18 in 10.0 mi SE 15.0 mph - N/A   Overcast
11:53 AM 60.1 °F - 48.9 °F 67% 30.19 in 10.0 mi ESE 13.8 mph - N/A   Overcast
12:30 PM 60.8 °F - 48.2 °F 63% 30.15 in 10.0 mi ESE 13.8 mph - N/A   Mostly Cloudy
12:41 PM 62.6 °F - 48.2 °F 59% 30.14 in 10.0 mi ESE 12.7 mph - N/A   Overcast
12:53 PM 61.0 °F - 48.9 °F 64% 30.17 in 10.0 mi ESE 15.0 mph - N/A   Overcast
1:53 PM 60.8 °F - 48.2 °F 63% 30.12 in 10.0 mi SE 10.4 mph - N/A   Overcast
2:53 PM 61.0 °F - 50.0 °F 67% 30.14 in 10.0 mi ESE 9.2 mph - N/A   Overcast
3:53 PM 61.0 °F - 51.1 °F 70% 30.12 in 10.0 mi ESE 9.2 mph - N/A   Overcast
4:10 PM 60.8 °F - 51.8 °F 72% 30.10 in 10.0 mi ESE 8.1 mph - N/A   Overcast
4:53 PM 60.8 °F - 51.8 °F 72% 30.11 in 10.0 mi ESE 6.9 mph - N/A   Overcast
5:53 PM 60.1 °F - 52.0 °F 75% 30.14 in 10.0 mi SE 9.2 mph - N/A   Overcast
6:53 PM 59.0 °F - 52.0 °F 78% 30.14 in 10.0 mi SE 8.1 mph - N/A   Overcast
7:53 PM 59.0 °F - 52.0 °F 78% 30.13 in 10.0 mi SE 8.1 mph - N/A   Scattered Clouds
8:53 PM 57.0 °F - 52.0 °F 83% 30.15 in 10.0 mi ESE 3.5 mph - N/A   Clear
9:53 PM 57.0 °F - 52.0 °F 83% 30.16 in 10.0 mi SSE 6.9 mph - N/A   Clear
10:53 PM 57.0 °F - 53.1 °F 87% 30.16 in 10.0 mi SSE 6.9 mph - N/A   Clear
11:53 PM 57.0 °F - 54.0 °F 89% 30.16 in 10.0 mi Calm Calm - N/A   Clear